"TOA5","Douglas_4NW","CR1000","77264","CR1000.Std.29","CPU:Douglas16.CR1","36641","Table201"
"TIMESTAMP","RECORD","Ta_C_Max","Ta_C_Min","WSPD_1minArray_Max","WSPD_1minArray_TMx","VP_Avg","VP_DEF_Avg","Rain_Tot","WSPD_5sec_Max","WSPD_5sec_TMx","BattVolts_Min"
"TS","RN","","","","","","","","","",""
"","","Max","Min","Max","TMx","Avg","Avg","Tot","Max","TMx","Min"
"2016-08-19 00:00:00",0,25.66,0,9.79,"2016-08-18 11:08:00",1.443,0.626,4.826,11.79,"2016-08-18 11:30:20",0
"2016-08-20 00:00:00",1,14.19,1.909,9.39,"2016-08-19 08:09:00",1.143,0.129,3.302,11.63,"2016-08-19 09:10:05",11.89
"2016-08-21 00:00:00",2,25.52,-0.871,6.5,"2016-08-20 13:06:00",0.756,0.864,0.254,10.35,"2016-08-20 09:57:15",11.76
"2016-08-22 00:00:00",3,32.99,0.959,5.168,"2016-08-21 15:44:00",0.764,1.553,0,6.993,"2016-08-21 15:34:25",12.02
"2016-08-23 00:00:00",4,35.16,5.578,8.78,"2016-08-22 14:18:00",0.728,2.431,0,11.47,"2016-08-22 14:23:05",12.06
"2016-08-24 00:00:00",5,30.13,9.17,7.685,"2016-08-23 00:15:00",0.552,1.98,0,9.55,"2016-08-23 00:14:45",12.12
"2016-08-25 00:00:00",6,24.97,6.531,7.619,"2016-08-24 22:03:00",0.765,1.162,0,8.91,"2016-08-24 22:01:45",12.06
"2016-08-26 00:00:00",7,18.88,8.28,5.874,"2016-08-25 01:23:00",1.068,0.388,8.13,7.632,"2016-08-25 01:13:00",12.07
"2016-08-27 00:00:00",8,26.41,4.558,7.605,"2016-08-26 18:33:00",1.044,0.787,0.762,9.71,"2016-08-26 19:47:40",11.97
"2016-08-28 00:00:00",9,29.73,3.064,8.43,"2016-08-27 11:15:00",0.801,1.36,0.254,10.51,"2016-08-27 11:43:30",11.99
"2016-08-29 00:00:00",10,32.85,2.796,6.966,"2016-08-28 10:00:00",0.741,1.798,0,8.91,"2016-08-28 11:40:15",11.98
"2016-08-30 00:00:00",11,32.51,6.528,7.073,"2016-08-29 14:39:00",0.917,1.575,0,8.59,"2016-08-29 14:36:05",12.01
"2016-08-31 00:00:00",12,30.68,5.782,6.7,"2016-08-30 15:01:00",1.034,1.435,0,8.43,"2016-08-30 15:00:20",12.04
"2016-09-01 00:00:00",13,28.57,7.4,7.246,"2016-08-31 12:01:00",1.312,1.089,0,9.23,"2016-08-31 10:41:20",12.05
"2016-09-02 00:00:00",14,32.51,13.11,7.232,"2016-09-01 15:25:00",1.45,1.364,0,9.39,"2016-09-01 16:16:10",12.11
"2016-09-03 00:00:00",15,31.7,11.48,7.033,"2016-09-02 14:27:00",1.299,1.233,0.762,9.39,"2016-09-02 14:26:35",12.07
"2016-09-04 00:00:00",16,29.6,9.58,8.36,"2016-09-03 14:38:00",1.169,1.048,2.54,10.99,"2016-09-03 14:30:45",11.96
"2016-09-05 00:00:00",17,27.36,8.69,11.89,"2016-09-04 17:21:00",1.322,0.633,0.762,15.62,"2016-09-04 17:20:25",11.93
"2016-09-06 00:00:00",18,26.27,9.37,7.499,"2016-09-05 20:13:00",1.181,0.87,0,8.91,"2016-09-05 20:12:45",11.88
"2016-09-07 00:00:00",19,22.2,10.53,7.192,"2016-09-06 19:37:00",1.268,0.505,0,9.07,"2016-09-06 13:04:40",11.88
"2016-09-08 00:00:00",20,27.49,6.855,8,"2016-09-07 13:41:00",0.936,1.213,0,9.87,"2016-09-07 13:20:05",11.81
"2016-09-09 00:00:00",21,29.45,1.776,10.24,"2016-09-08 10:43:00",0.686,1.493,0,12.75,"2016-09-08 15:13:35",11.94
"2016-09-10 00:00:00",22,15.01,-1.415,6.766,"2016-09-09 08:01:00",0.785,0.303,1.016,8.75,"2016-09-09 08:36:00",11.87
"2016-09-11 00:00:00",23,28.23,-4.267,6.646,"2016-09-10 15:45:00",0.521,1.143,0.254,8.27,"2016-09-10 16:03:15",11.68
"2016-09-12 00:00:00",24,31.77,-2.096,10.8,"2016-09-11 13:53:00",0.509,1.795,0,13.54,"2016-09-11 21:36:30",11.91
"2016-09-13 00:00:00",25,13.65,6.253,6.14,"2016-09-12 17:15:00",0.854,0.31,0,8.11,"2016-09-12 19:28:00",11.82
"2016-09-14 00:00:00",26,12.36,5.034,8.4,"2016-09-13 11:38:00",0.925,0.169,0.508,10.35,"2016-09-13 11:23:50",11.57
"2016-09-15 00:00:00",27,26.27,6.039,13.05,"2016-09-14 14:54:00",1.084,0.616,3.556,14.98,"2016-09-14 14:53:10",11.43
"2016-09-16 00:00:00",28,20.85,1.503,8.43,"2016-09-15 14:00:00",0.814,0.528,0,9.87,"2016-09-15 14:09:55",11.48
"2016-09-17 00:00:00",29,23.42,0.551,6.78,"2016-09-16 10:32:00",0.714,0.733,0,8.75,"2016-09-16 11:18:30",11.42
"2016-09-18 00:00:00",30,26.13,-2.707,8.59,"2016-09-17 12:31:00",0.575,1.144,0,10.67,"2016-09-17 16:44:55",11.55
"2016-09-19 00:00:00",31,30.68,7.403,12.72,"2016-09-18 14:03:00",0.66,2.033,0,14.82,"2016-09-18 11:46:00",12.03
"2016-09-20 00:00:00",32,31.7,3.946,9.1,"2016-09-19 13:25:00",0.773,1.558,0,11.47,"2016-09-19 13:24:45",12
"2016-09-21 00:00:00",33,32.99,3.336,5.941,"2016-09-20 13:39:00",0.614,1.808,0,7.312,"2016-09-20 14:15:55",11.98
"2016-09-22 00:00:00",34,24.91,7.269,4.982,"2016-09-21 19:50:00",1.029,0.844,0.254,6.034,"2016-09-21 19:52:40",11.94
"2016-09-23 00:00:00",35,20.5,12.43,9.28,"2016-09-22 15:08:00",1.484,0.321,0.508,11.63,"2016-09-22 09:41:10",11.79
"2016-09-24 00:00:00",36,24.98,7.132,11.19,"2016-09-23 15:42:00",1.229,0.426,5.842,13.86,"2016-09-23 15:41:50",11.65
"2016-09-25 00:00:00",37,12.98,4.558,10.69,"2016-09-24 08:50:00",0.859,0.25,7.112,14.18,"2016-09-24 08:49:05",11.52
"2016-09-26 00:00:00",38,18.67,0.959,6.753,"2016-09-25 10:56:00",0.752,0.563,0,8.27,"2016-09-25 00:02:45",11.37
"2016-09-27 00:00:00",39,23.55,-0.667,5.541,"2016-09-26 14:00:00",0.791,0.699,0,7.153,"2016-09-26 13:59:45",11.54
"2016-09-28 00:00:00",40,28.23,-0.463,6.953,"2016-09-27 11:05:00",0.767,1.055,0,8.27,"2016-09-27 10:32:50",11.8
"2016-09-29 00:00:00",41,27.21,1.3,4.689,"2016-09-28 15:26:00",0.773,1.088,0,6.354,"2016-09-28 15:25:05",11.88
"2016-09-30 00:00:00",42,28.37,4.49,7.352,"2016-09-29 16:22:00",0.922,1.037,0,8.75,"2016-09-29 16:34:05",12
"2016-10-01 00:00:00",43,27.22,5.305,7.366,"2016-09-30 13:50:00",1.031,0.835,0,8.59,"2016-09-30 13:17:20",11.98
"2016-10-02 00:00:00",44,28.98,2.116,4.716,"2016-10-01 11:59:00",0.915,0.982,0,7.153,"2016-10-01 12:45:50",11.84
"2016-10-03 00:00:00",45,26.33,3.81,4.729,"2016-10-02 15:14:00",0.962,0.895,0,6.673,"2016-10-02 10:37:50",11.91
"2016-10-04 00:00:00",46,19.63,5.907,14.72,"2016-10-03 15:52:00",0.827,0.669,0.254,17.38,"2016-10-03 14:59:00",11.98
"2016-10-05 00:00:00",47,11.55,-1.415,8.88,"2016-10-04 07:55:00",0.662,0.348,2.286,11.63,"2016-10-04 00:52:05",11.6
"2016-10-06 00:00:00",48,17.32,-5.969,8.1,"2016-10-05 12:04:00",0.519,0.465,0,9.87,"2016-10-05 13:19:15",11.41
"2016-10-07 00:00:00",49,12.83,-3.117,9.16,"2016-10-06 13:30:00",0.622,0.152,2.286,10.83,"2016-10-06 13:29:00",11.76
"2016-10-08 00:00:00",50,17.51,-0.606,8.55,"2016-10-07 13:57:00",0.56,0.471,0.254,11.79,"2016-10-07 13:56:15",11.69
"2016-10-09 00:00:00",51,24.84,-1.143,5.781,"2016-10-08 09:43:00",0.547,0.959,0,7.312,"2016-10-08 09:13:20",11.91
"2016-10-10 00:00:00",52,26.54,-4.744,7.419,"2016-10-09 14:36:00",0.484,1.07,0,10.19,"2016-10-09 14:28:05",11.88
"2016-10-11 00:00:00",53,27.01,-1.756,12.69,"2016-10-10 13:22:00",0.528,1.201,0,15.14,"2016-10-10 13:21:50",11.92
"2016-10-12 00:00:00",54,16.71,-1.688,8.55,"2016-10-11 11:50:00",0.652,0.197,0,10.35,"2016-10-11 11:43:45",11.9
"2016-10-13 00:00:00",55,15.14,-8.95,3.504,"2016-10-12 15:46:00",0.481,0.334,0,5.075,"2016-10-12 09:14:30",11.72
"2016-10-14 00:00:00",56,23.89,-8.75,9.91,"2016-10-13 12:48:00",0.413,0.95,0,13.22,"2016-10-13 12:44:00",11.84
"2016-10-15 00:00:00",57,27.76,4.752,11.84,"2016-10-14 12:18:00",0.485,1.763,0,14.34,"2016-10-14 12:17:20",12.03
"2016-10-16 00:00:00",58,23.55,1.907,12.89,"2016-10-15 11:18:00",0.638,0.959,0.508,15.94,"2016-10-15 11:52:30",11.85
"2016-10-17 00:00:00",59,23.49,5.971,13.58,"2016-10-16 09:39:00",0.566,1.169,0,16.74,"2016-10-16 09:38:25",11.98
"2016-10-18 00:00:00",60,16.57,4.281,13.73,"2016-10-17 14:33:00",0.521,0.725,0,17.38,"2016-10-17 14:32:35",11.85
"2016-10-19 00:00:00",61,16.84,-6.105,7.938,"2016-10-18 09:51:00",0.368,0.67,0,9.87,"2016-10-18 09:41:45",11.61
"2016-10-20 00:00:00",62,12.02,-3.933,9.28,"2016-10-19 14:26:00",0.521,0.261,1.016,10.99,"2016-10-19 14:26:30",11.78
"2016-10-21 00:00:00",63,16.57,-10.59,6.633,"2016-10-20 15:08:00",0.357,0.519,0.254,8.59,"2016-10-20 12:25:15",11.52
"2016-10-22 00:00:00",64,22.4,-3.593,7.659,"2016-10-21 10:25:00",0.369,1.05,0,9.23,"2016-10-21 15:26:40",11.94
"2016-10-23 00:00:00",65,24.98,-7.189,10.36,"2016-10-22 12:09:00",0.391,1.017,0,12.75,"2016-10-22 12:34:15",11.83
"2016-10-24 00:00:00",66,21.65,-5.629,5.541,"2016-10-23 10:20:00",0.502,0.713,0,7.153,"2016-10-23 12:52:40",11.85
"2016-10-25 00:00:00",67,21.93,-3.995,3.677,"2016-10-24 15:00:00",0.549,0.731,0,4.915,"2016-10-24 14:50:00",11.87
"2016-10-26 00:00:00",68,21.78,-1.081,10.48,"2016-10-25 13:06:00",0.726,0.857,0,12.91,"2016-10-25 11:47:50",11.83
"2016-10-27 00:00:00",69,22.87,-4.608,8.15,"2016-10-26 11:42:00",0.561,0.731,0,10.19,"2016-10-26 11:38:30",11.62
"2016-10-28 00:00:00",70,28.3,-2.776,11.01,"2016-10-27 21:22:00",0.593,1.289,0,13.22,"2016-10-27 21:21:15",11.8
"2016-10-29 00:00:00",71,25.73,5.631,7.166,"2016-10-28 11:19:00",0.785,1.117,0,9.23,"2016-10-28 12:08:35",11.83
"2016-10-30 00:00:00",72,17.99,1.502,6.087,"2016-10-29 23:38:00",0.878,0.298,0.254,7.312,"2016-10-29 12:20:45",11.63
"2016-10-31 00:00:00",73,20.91,4.286,9.9,"2016-10-30 23:48:00",0.862,0.669,0,12.75,"2016-10-30 23:29:30",11.8
"2016-11-01 00:00:00",74,20.65,1.159,13.33,"2016-10-31 13:41:00",0.49,1.151,0,16.74,"2016-10-31 13:36:05",11.65
"2016-11-02 00:00:00",75,18.68,-1.62,4.289,"2016-11-01 10:07:00",0.547,0.528,0.254,5.075,"2016-11-01 10:05:40",11.8
"2016-11-03 00:00:00",76,18.13,-7.259,4.622,"2016-11-02 09:47:00",0.415,0.587,0,5.714,"2016-11-02 02:54:10",11.71
"2016-11-04 00:00:00",77,24.57,-9.29,5.301,"2016-11-03 11:18:00",0.332,0.782,0,6.354,"2016-11-03 10:54:25",11.75
"2016-11-05 00:00:00",78,25.73,-8,2.305,"2016-11-04 11:30:00",0.334,0.74,0,2.998,"2016-11-04 13:24:50",11.78
"2016-11-06 00:00:00",79,21.92,-7.125,3.717,"2016-11-05 14:44:00",0.393,0.689,0,5.075,"2016-11-05 14:40:05",11.78
"2016-11-07 00:00:00",80,21.44,-4.408,8.63,"2016-11-06 11:28:00",0.422,0.878,0,10.03,"2016-11-06 10:19:10",11.84
"2016-11-08 00:00:00",81,19.62,-6.173,3.144,"2016-11-07 12:42:00",0.406,0.548,0,3.797,"2016-11-07 12:41:20",11.83
"2016-11-09 00:00:00",82,19.48,-9.77,3.371,"2016-11-08 14:51:00",0.389,0.498,0,4.116,"2016-11-08 13:44:50",11.76
"2016-11-10 00:00:00",83,24.57,-8.54,5.408,"2016-11-09 14:02:00",0.412,0.709,0,6.673,"2016-11-09 13:50:55",11.78
"2016-11-11 00:00:00",84,20.97,-2.505,5.874,"2016-11-10 11:47:00",0.484,0.752,0,7.312,"2016-11-10 11:45:20",11.93
"2016-11-12 00:00:00",85,16.5,-3.932,8.08,"2016-11-11 12:20:00",0.525,0.471,0,10.67,"2016-11-11 13:41:15",11.88
"2016-11-13 00:00:00",86,22.47,-7.665,8.3,"2016-11-12 12:39:00",0.45,0.797,0,10.19,"2016-11-12 14:24:15",11.81
"2016-11-14 00:00:00",87,19.21,-4.744,5.981,"2016-11-13 05:26:00",0.497,0.681,2.032,7.153,"2016-11-13 05:19:50",11.99
"2016-11-15 00:00:00",88,19.36,-7.797,9.59,"2016-11-14 09:13:00",0.438,0.898,2.286,12.27,"2016-11-14 08:58:10",11.74
"2016-11-16 00:00:00",89,22.67,1.088,8.35,"2016-11-15 14:15:00",0.369,1.169,0,10.35,"2016-11-15 11:44:20",11.81
"2016-11-17 00:00:00",90,21.12,2.721,10.27,"2016-11-16 09:55:00",0.478,0.91,0,13.7,"2016-11-16 04:38:35",11.93
"2016-11-18 00:00:00",91,3.742,-5.288,8.96,"2016-11-17 15:11:00",0.426,0.14,0,10.51,"2016-11-17 15:33:05",11.37
"2016-11-19 00:00:00",92,1.497,-11.06,6.274,"2016-11-18 04:20:00",0.314,0.116,1.524,8.75,"2016-11-18 04:49:25",11.17
"2016-11-20 00:00:00",93,13.17,-12.83,4.609,"2016-11-19 15:49:00",0.366,0.23,0.254,6.354,"2016-11-19 15:48:35",11.56
"2016-11-21 00:00:00",94,18.13,-1.558,10.14,"2016-11-20 13:23:00",0.411,0.781,0,11.47,"2016-11-20 13:23:00",11.72
"2016-11-22 00:00:00",95,15.48,3.333,7.073,"2016-11-21 18:45:00",0.607,0.565,0,8.59,"2016-11-21 18:44:15",11.62
"2016-11-23 00:00:00",96,4.558,-7.262,6.047,"2016-11-22 12:59:00",0.567,0.053,12.95,8.11,"2016-11-22 00:07:20",11.18
"2016-11-24 00:00:00",97,6.52,-10.18,5.821,"2016-11-23 18:18:00",0.461,0.153,0,7.632,"2016-11-23 18:17:30",10.97
"2016-11-25 00:00:00",98,5.705,-7.943,6.78,"2016-11-24 05:56:00",0.448,0.195,0.762,8.59,"2016-11-24 06:09:40",10.71
"2016-11-26 00:00:00",99,12.02,-8.48,8.34,"2016-11-25 13:36:00",0.304,0.483,0,9.87,"2016-11-25 13:35:20",9.17
"2016-11-27 00:00:00",100,12.76,-8.35,6.726,"2016-11-26 12:59:00",0.319,0.484,0,8.91,"2016-11-26 02:07:10",10.36
"2016-11-28 00:00:00",101,8.76,-7.532,11.13,"2016-11-27 15:12:00",0.457,0.26,0,14.02,"2016-11-27 14:46:30",10.02
"2016-11-29 00:00:00",102,5.767,-5.221,11.36,"2016-11-28 11:45:00",0.382,0.238,0,13.54,"2016-11-28 11:44:05",10.54
"2016-11-30 00:00:00",103,0.347,-4.608,12.77,"2016-11-29 08:33:00",0.33,0.182,0,16.1,"2016-11-29 08:32:35",10.01
"2016-12-01 00:00:00",104,2.246,-14.66,9.94,"2016-11-30 11:45:00",0.226,0.229,0,11.63,"2016-11-30 11:44:40",0
"2016-12-02 00:00:00",105,3.606,-8.07,5.927,"2016-12-01 11:59:00",0.388,0.197,0,6.993,"2016-12-01 13:49:05",0
"2016-12-03 00:00:00",106,4.762,-14.8,4.383,"2016-12-02 09:36:00",0.379,0.077,0,7.153,"2016-12-02 14:39:05",9.03
"2016-12-04 00:00:00",107,4.827,-9.91,9.52,"2016-12-03 13:55:00",0.272,0.302,0,11.79,"2016-12-03 13:49:55",0
"2016-12-05 00:00:00",108,6.992,-11.6,12.2,"2016-12-04 20:26:00",0.345,0.5,0,14.82,"2016-12-04 20:25:45",0
"2016-12-06 00:00:00",109,0,-17.05,3.011,"2016-12-05 23:29:00",0.147,0.022,0,3.477,"2016-12-05 23:47:35",0
"2016-12-09 00:00:00",110,0,-30.11,1.653,"2016-12-08 17:59:00",0.087,0.028,0.254,1.719,"2016-12-08 17:58:20",0
"2016-12-10 00:00:00",111,0,-20.72,4.636,"2016-12-09 08:07:00",0.163,0.053,0,5.714,"2016-12-09 08:05:10",0
"2016-12-11 00:00:00",112,7.469,-1.905,11.4,"2016-12-10 12:46:00",0.53,0.33,3.81,13.54,"2016-12-10 20:33:20",0
"2016-12-12 00:00:00",113,0.204,-12.3,8.32,"2016-12-11 23:53:00",0.366,0.077,1.778,9.55,"2016-12-11 23:53:00",9.05
"2016-12-13 00:00:00",114,1.837,-16.23,9.87,"2016-12-12 13:21:00",0.245,0.129,0.254,11.79,"2016-12-12 13:13:50",0
"2016-12-31 00:00:00",0,10.11,-5.294,6.631,"2016-12-30 12:31:00",0.362,0.382,0,8.7,"2016-12-30 12:03:00",0
"2017-01-01 00:00:00",1,1.531,-16.44,1.89,"2016-12-31 14:08:00",0.276,0.061,0.508,2.372,"2016-12-31 14:00:45",12.55
"2017-01-02 00:00:00",2,7.763,-16.64,4.733,"2017-01-01 12:45:00",0.279,0.188,0.254,6.174,"2017-01-01 12:45:55",12.48
"2017-01-03 00:00:00",3,-9.1,-16.64,3.946,"2017-01-02 12:33:00",0.183,0.053,0,4.645,"2017-01-02 12:32:40",12.57
"2017-01-04 00:00:00",4,-12.77,-18.95,2.247,"2017-01-03 03:50:00",0.132,0.049,0,2.92,"2017-01-03 03:48:40",12.46
"2017-01-05 00:00:00",5,-12.8,-21.13,3.061,"2017-01-04 12:27:00",0.135,0.038,0,3.489,"2017-01-04 12:27:50",12.45
"2017-01-06 00:00:00",6,-13.82,-32.53,3.631,"2017-01-05 15:03:00",0.078,0.035,0,4.626,"2017-01-05 13:54:10",12.34
"2017-01-07 00:00:00",7,-6.634,-31.99,4.408,"2017-01-06 14:59:00",0.081,0.051,0,5.135,"2017-01-06 14:58:00",12.24
"2017-01-08 00:00:00",8,0.831,-28.51,4.939,"2017-01-07 23:33:00",0.126,0.073,0,6.86,"2017-01-07 23:32:20",12.31
"2017-01-09 00:00:00",9,5.781,-2.097,6.099,"2017-01-08 12:06:00",0.467,0.269,4.318,7.134,"2017-01-08 11:34:45",12.6
"2017-02-01 00:00:00",0,3.844,-8.01,4.127,"2017-01-31 16:07:00",0.339,0.126,0,4.92,"2017-01-31 16:23:15",0
"2017-02-02 00:00:00",1,-7.909,-12.9,3.334,"2017-02-01 04:15:00",0.234,0.054,0,4.018,"2017-02-01 04:14:10",11.83
"2017-02-03 00:00:00",2,-11.64,-20.45,2.502,"2017-02-02 08:55:00",0.173,0.041,0,3.195,"2017-02-02 01:47:50",11.48
"2017-02-04 00:00:00",3,5.792,-27.15,4.722,"2017-02-03 23:42:00",0.225,0.079,0.508,6.135,"2017-02-03 23:44:55",11.21
"2017-02-05 00:00:00",4,10.72,3.999,7.517,"2017-02-04 03:15:00",0.495,0.486,1.27,9.55,"2017-02-04 02:53:25",11.85
"2017-02-06 00:00:00",5,12.97,2.619,7.665,"2017-02-05 11:53:00",0.437,0.643,0.254,9.76,"2017-02-05 12:05:00",12.07
"2017-02-07 00:00:00",6,12.73,1.633,8.7,"2017-02-06 12:44:00",0.464,0.609,0,10.82,"2017-02-06 12:46:45",12.11
"2017-02-08 00:00:00",7,7.263,-10.4,6.883,"2017-02-07 23:46:00",0.409,0.119,0.762,8.06,"2017-02-07 23:44:05",11.82
"2017-02-09 00:00:00",8,-2.336,-15.25,4.686,"2017-02-08 00:09:00",0.238,0.069,0,5.88,"2017-02-08 00:07:00",11.61
"2017-02-10 00:00:00",9,15.74,-13.2,8.1,"2017-02-09 12:52:00",0.575,0.573,7.874,10.07,"2017-02-09 12:27:35",11.99
"2017-02-11 00:00:00",10,18.33,4.237,9.06,"2017-02-10 02:06:00",0.69,0.835,0.254,11.07,"2017-02-10 03:11:30",12.18
"2017-02-12 00:00:00",11,9.06,-7.398,5.633,"2017-02-11 11:48:00",0.511,0.295,0,7.487,"2017-02-11 11:54:30",11.83
"2017-02-13 00:00:00",12,9.91,-13.31,2.617,"2017-02-12 15:06:00",0.303,0.265,0,3.352,"2017-02-12 15:05:15",11.61
"2017-02-14 00:00:00",13,11.67,-8.69,5.022,"2017-02-13 15:10:00",0.314,0.369,0,6.076,"2017-02-13 15:09:20",12.02
"2017-02-15 00:00:00",14,11.54,-7.804,4.647,"2017-02-14 10:13:00",0.347,0.349,0,6.194,"2017-02-14 10:22:40",12.04
"2017-02-16 00:00:00",15,17.58,-11.13,6.827,"2017-02-15 11:29:00",0.324,0.613,0,8.41,"2017-02-15 11:29:15",11.96
"2017-02-17 00:00:00",16,20.56,-6.514,7.005,"2017-02-16 23:35:00",0.267,0.989,0,7.958,"2017-02-16 23:34:20",12.02
"2017-02-18 00:00:00",17,16.22,-0.435,6.729,"2017-02-17 01:36:00",0.372,0.765,0,8.68,"2017-02-17 01:34:45",12.13
"2017-02-19 00:00:00",18,17.92,-0.708,5.929,"2017-02-18 11:35:00",0.516,0.735,0,7.664,"2017-02-18 11:30:45",12.1
"2017-02-20 00:00:00",19,14.8,1.631,7.425,"2017-02-19 23:23:00",0.561,0.613,0,8.76,"2017-02-19 23:22:30",11.89
"2017-02-21 00:00:00",20,14.93,-0.81,7.864,"2017-02-20 16:27:00",0.417,0.689,0,10.31,"2017-02-20 22:35:20",11.71
"2017-02-22 00:00:00",21,18.56,3.328,8.85,"2017-02-21 11:46:00",0.561,0.845,1.016,11.11,"2017-02-21 10:22:55",12.13
"2017-02-23 00:00:00",22,9.03,-0.572,5.9,"2017-02-22 10:03:00",0.428,0.4,0,7.311,"2017-02-22 10:02:20",11.99
"2017-02-24 00:00:00",23,-0.469,-9.61,4.572,"2017-02-23 09:18:00",0.386,0.028,0,5.41,"2017-02-23 11:47:55",11.72
"2017-02-25 00:00:00",24,-1.449,-21.27,2.483,"2017-02-24 13:36:00",0.225,0.051,0.254,2.94,"2017-02-24 13:35:30",11.54
"2017-02-26 00:00:00",25,-4.206,-23.68,7.004,"2017-02-25 14:40:00",0.172,0.093,0,8.37,"2017-02-25 14:39:15",11.66
"2017-02-27 00:00:00",26,-1.006,-22.35,6.79,"2017-02-26 11:27:00",0.172,0.146,0,7.82,"2017-02-26 12:49:00",11.77
"2017-02-28 00:00:00",27,2.925,-10.66,5.877,"2017-02-27 22:52:00",0.324,0.136,4.318,7.82,"2017-02-27 22:49:10",11.92
"2017-03-01 00:00:00",28,-0.269,-13.11,7.231,"2017-02-28 14:40:00",0.211,0.203,0,8.33,"2017-02-28 14:47:15",11.81
"2017-03-02 00:00:00",29,1.054,-16.78,7.502,"2017-03-01 13:06:00",0.242,0.214,1.016,8.96,"2017-03-01 14:31:15",11.83
"2017-03-03 00:00:00",30,4.728,-14.94,3.678,"2017-03-02 13:31:00",0.287,0.168,1.27,4.292,"2017-03-02 15:15:55",11.87
"2017-03-04 00:00:00",31,11.21,-10.79,4.41,"2017-03-03 07:34:00",0.353,0.357,0.762,5.449,"2017-03-03 06:49:55",11.92
"2017-03-05 00:00:00",32,13.03,-2.647,6.091,"2017-03-04 13:26:00",0.414,0.605,0,7.507,"2017-03-04 13:25:10",12.05
"2017-03-06 00:00:00",33,15.31,-3.763,6.357,"2017-03-05 23:52:00",0.42,0.525,0,7.918,"2017-03-05 23:51:50",11.95
"2017-03-07 00:00:00",34,8.54,-7.128,9.39,"2017-03-06 07:35:00",0.4,0.137,1.27,11.17,"2017-03-06 07:29:25",11.72
"2017-03-08 00:00:00",35,3.594,-11,7.686,"2017-03-07 10:15:00",0.302,0.256,0,9.47,"2017-03-07 14:09:30",11.58
"2017-03-09 00:00:00",36,11.67,-0.265,8.36,"2017-03-08 15:07:00",0.476,0.488,0,9.74,"2017-03-08 16:11:50",12.03
"2017-03-10 00:00:00",37,13.37,-4.206,7.412,"2017-03-09 08:33:00",0.479,0.448,0,9.23,"2017-03-09 08:32:30",12.1
"2017-03-11 00:00:00",38,18.43,-4.512,6.819,"2017-03-10 13:02:00",0.529,0.346,2.032,8.43,"2017-03-10 13:04:10",12.63
"2017-03-12 00:00:00",39,12.9,1.054,4.062,"2017-03-11 20:41:00",0.649,0.298,2.286,4.92,"2017-03-11 20:57:55",12.69
"2017-03-13 00:00:00",40,11.21,-3.261,7.497,"2017-03-12 07:42:00",0.501,0.357,0.762,9.35,"2017-03-12 07:41:00",12.73
"2017-03-14 00:00:00",41,15.07,-8.59,5.31,"2017-03-13 15:41:00",0.455,0.337,0,6.88,"2017-03-13 15:16:05",12.62
"2017-03-15 00:00:00",42,16.3,-1.218,2.849,"2017-03-14 06:36:00",0.583,0.448,0,3.665,"2017-03-14 06:56:15",12.71
"2017-03-16 00:00:00",43,21.38,-3.423,5.911,"2017-03-15 10:44:00",0.462,0.863,0,7.076,"2017-03-15 10:45:50",12.67
"2017-03-17 00:00:00",44,21.92,-0.34,7.605,"2017-03-16 16:25:00",0.498,0.999,0,9.51,"2017-03-16 10:21:50",12.71
"2017-03-18 00:00:00",45,16.63,-4.308,2.372,"2017-03-17 17:01:00",0.47,0.517,0,2.842,"2017-03-17 22:04:10",12.62
"2017-03-19 00:00:00",46,26.81,-3.457,5.687,"2017-03-18 12:21:00",0.5,1.275,0,6.938,"2017-03-18 12:20:25",12.64
"2017-03-20 00:00:00",47,23.52,1.156,7.294,"2017-03-19 11:26:00",0.504,1.169,0,9.15,"2017-03-19 14:43:35",12.7
"2017-03-21 00:00:00",48,18.7,-0.033,3.824,"2017-03-20 14:58:00",0.622,0.542,4.318,4.822,"2017-03-20 14:39:35",12.63
"2017-03-22 00:00:00",49,13.95,2.721,5.075,"2017-03-21 16:04:00",0.748,0.295,0.762,6.468,"2017-03-21 16:01:35",12.65
"2017-03-23 00:00:00",50,23.55,-0.095,5.044,"2017-03-22 16:26:00",0.676,0.648,0,6.233,"2017-03-22 16:37:50",12.62
"2017-03-24 00:00:00",51,17.48,0.278,6.029,"2017-03-23 15:54:00",0.768,0.294,1.27,7.35,"2017-03-23 15:53:40",12.62
"2017-03-25 00:00:00",52,16.33,-1.288,4.501,"2017-03-24 07:10:00",0.564,0.512,0,5.076,"2017-03-24 07:09:05",12.62
"2017-03-26 00:00:00",53,16.57,-2.13,3.729,"2017-03-25 22:37:00",0.58,0.557,0,4.567,"2017-03-25 22:22:10",12.56
"2017-03-27 00:00:00",54,13.65,-0.204,3.517,"2017-03-26 07:35:00",0.667,0.23,4.064,4.136,"2017-03-26 11:10:45",12.61
"2017-03-28 00:00:00",55,18.33,-2.708,4.746,"2017-03-27 09:33:00",0.513,0.661,0.254,5.86,"2017-03-27 09:45:45",12.56
"2017-03-29 00:00:00",56,7.807,1.734,4.805,"2017-03-28 13:26:00",0.791,0.078,1.778,5.9,"2017-03-28 13:25:30",12.61
"2017-03-30 00:00:00",57,16.02,0.309,4.211,"2017-03-29 09:47:00",0.61,0.474,0,5.076,"2017-03-29 09:46:40",12.6
"2017-03-31 00:00:00",58,15.48,-2.096,4.315,"2017-03-30 12:08:00",0.759,0.258,1.27,5.174,"2017-03-30 12:11:50",12.54
"2017-04-01 00:00:00",0,1.701,-0.129,2.982,"2017-03-31 12:41:00",0.615,0.027,15.24,3.567,"2017-03-31 12:40:10",0
"2017-04-02 00:00:00",1,8.45,-0.912,2.523,"2017-04-01 15:20:00",0.645,0.09,12.95,3.077,"2017-04-01 18:17:25",12.56
"2017-04-03 00:00:00",2,10.66,-3.253,4.018,"2017-04-02 09:25:00",0.703,0.133,5.842,4.665,"2017-04-02 09:24:35",12.55
"2017-04-04 00:00:00",3,7.378,-6.178,5.746,"2017-04-03 12:08:00",0.59,0.083,4.572,6.488,"2017-04-03 12:07:55",12.58
"2017-04-05 00:00:00",4,7.063,-5.124,4.41,"2017-04-04 11:24:00",0.479,0.157,0,5.037,"2017-04-04 10:26:20",12.52
"2017-04-06 00:00:00",5,13.65,-10.14,5.437,"2017-04-05 12:42:00",0.396,0.435,0.254,6.801,"2017-04-05 11:28:40",12.47
"2017-04-07 00:00:00",6,20.49,-6.345,3.206,"2017-04-06 11:41:00",0.539,0.658,0,4.077,"2017-04-06 14:16:30",12.52
"2017-04-08 00:00:00",7,24.94,-0.234,5.909,"2017-04-07 15:20:00",0.585,1.118,0,7.272,"2017-04-07 12:57:45",12.58
"2017-04-09 00:00:00",8,20.06,0.272,6.484,"2017-04-08 16:08:00",0.662,0.724,0,8.11,"2017-04-08 15:23:25",12.61
"2017-04-10 00:00:00",9,11.38,-1.215,9.7,"2017-04-09 13:45:00",0.609,0.18,2.032,11.72,"2017-04-09 13:27:00",12.57
"2017-04-11 00:00:00",10,13.14,-2.032,5.54,"2017-04-10 00:04:00",0.441,0.401,0.762,7.056,"2017-04-10 00:12:05",12.52
"2017-04-12 00:00:00",11,17.11,-5.562,3.433,"2017-04-11 20:43:00",0.506,0.618,0,4.018,"2017-04-11 20:39:50",12.49
"2017-04-13 00:00:00",12,21.38,-3.051,4.438,"2017-04-12 23:55:00",0.584,0.783,0,5.939,"2017-04-12 23:58:15",12.54
"2017-04-14 00:00:00",13,26.53,4.251,6.355,"2017-04-13 17:32:00",0.729,1.155,0,8.29,"2017-04-13 17:31:35",12.58
"2017-04-15 00:00:00",14,21.21,5.019,6.06,"2017-04-14 15:04:00",0.591,1.006,0,7.762,"2017-04-14 16:35:15",12.6
"2017-04-16 00:00:00",15,15.18,-6.177,5.48,"2017-04-15 07:22:00",0.318,0.73,0,9.19,"2017-04-15 10:40:05",12.55
"2017-04-17 00:00:00",16,19.25,-6.548,3.786,"2017-04-16 15:19:00",0.381,0.748,0,4.704,"2017-04-16 15:02:35",12.46
"2017-04-18 00:00:00",17,23.66,0.48,6.043,"2017-04-17 19:58:00",0.565,0.821,0,7.703,"2017-04-17 19:57:10",12.54
"2017-04-19 00:00:00",18,15.96,-4.274,4.807,"2017-04-18 23:45:00",0.703,0.482,1.778,5.841,"2017-04-18 23:43:50",12.49
"2017-04-20 00:00:00",19,13.78,0.17,6.999,"2017-04-19 10:57:00",0.766,0.298,0.508,9.02,"2017-04-19 10:54:40",12.57
"2017-04-21 00:00:00",20,17.01,-5.768,5.08,"2017-04-20 23:52:00",0.519,0.599,0,7.134,"2017-04-20 23:15:45",12.47
"2017-04-22 00:00:00",21,10.26,2.789,5.749,"2017-04-21 14:56:00",0.76,0.129,13.21,8.21,"2017-04-21 15:04:35",12.56